Weather History for KCNB - November, 2012

Change the Weather History Date:

Saturday, November 17, 2012

  Actual Average (KMML) Record (KMML)
Temperature  
Mean Temperature 50 °F -  
Max Temperature 57 °F 39 °F 70 °F (1953)
Min Temperature 42 °F 24 °F -6 °F (1959)
Degree Days  
Heating Degree Days 16    
Moisture  
Dew Point 35 °F    
Average Humidity 60    
Maximum Humidity 75    
Minimum Humidity 45    
Precipitation  
Precipitation 0.00 in - - ()
Sea Level Pressure  
Sea Level Pressure 30.09 in    
Wind  
Wind Speed 16 mph (South)    
Max Wind Speed 21 mph    
Max Gust Speed 30 mph    
Visibility 10 miles    
Events      
Averages and records for this station are not official NWS values.
T = Trace of Precipitation, MM = Missing Value Source: NWS Daily Summary

Daily Weather History Graph

Daily Weather History Graph

Search for Another Location

Airport or City:

Trip Planner

Search our weather history database for the weather conditions in past years. The results will help you decide how hot, cold, wet, or windy it might be!

Date:

Astronomy

Nov. 17, 2012 Rise Set
Actual Time 7:25 AM CST 4:54 PM CST
Civil Twilight 6:53 AM CST 5:26 PM CST
Nautical Twilight 6:17 AM CST 6:01 PM CST
Astronomical Twilight 5:43 AM CST 6:36 PM CST
Moon 11:10 AM CST (11/17) 9:06 PM CST (11/17)
Length of Visible Light 10h 32m
Length of Day
9h 29m
Waxing Crescent, 20% of the Moon is Illuminated
Nov 17
Waxing Crescent
Nov 20
First Quarter
Nov 28
Full
Dec 6
Last Quarter
Dec 13
New

Hourly Weather History & Observations

Time (CST) Temp. Windchill Dew Point Humidity Pressure Visibility Wind Dir Wind Speed Gust Speed Precip Events Conditions
12:14 AM 43.7 °F 36.0 °F 32.4 °F 64% 30.16 in 10.0 mi South 17.3 mph 24.2 mph N/A   Clear
12:35 AM 43.7 °F 35.7 °F 32.7 °F 65% 30.16 in 10.0 mi South 18.4 mph 27.6 mph N/A   Clear
12:55 AM 43.3 °F 35.0 °F 32.9 °F 67% 30.15 in 10.0 mi South 19.6 mph 27.6 mph N/A   Clear
1:15 AM 43.5 °F 36.1 °F 32.9 °F 66% 30.15 in 10.0 mi South 16.1 mph 26.5 mph N/A   Clear
1:35 AM 43.7 °F 35.7 °F 32.9 °F 66% 30.14 in 10.0 mi South 18.4 mph 28.8 mph N/A   Clear
1:55 AM 43.7 °F 35.4 °F 33.3 °F 67% 30.14 in 10.0 mi South 19.6 mph 27.6 mph N/A   Clear
2:15 AM 43.5 °F 35.2 °F 33.3 °F 67% 30.13 in 10.0 mi South 19.6 mph 29.9 mph N/A   Clear
2:35 AM 43.3 °F 34.7 °F 33.3 °F 68% 30.13 in 10.0 mi South 20.7 mph 25.3 mph N/A   Clear
2:55 AM 43.7 °F 35.2 °F 33.4 °F 67% 30.13 in 10.0 mi SSW 20.7 mph 29.9 mph N/A   Clear
3:15 AM 43.9 °F 35.4 °F 33.6 °F 67% 30.13 in 10.0 mi South 20.7 mph 29.9 mph N/A   Clear
3:35 AM 43.7 °F 35.7 °F 33.4 °F 67% 30.13 in 10.0 mi SSW 18.4 mph 25.3 mph N/A   Clear
3:55 AM 43.7 °F 35.7 °F 33.4 °F 67% 30.12 in 10.0 mi South 18.4 mph 25.3 mph N/A   Clear
4:15 AM 43.9 °F 36.5 °F 33.8 °F 68% 30.12 in 10.0 mi SSW 16.1 mph 25.3 mph N/A   Clear
4:35 AM 43.9 °F 36.2 °F 33.4 °F 67% 30.11 in 10.0 mi SSW 17.3 mph 27.6 mph N/A   Clear
4:55 AM 43.9 °F 36.5 °F 33.4 °F 67% 30.11 in 10.0 mi South 16.1 mph 25.3 mph N/A   Clear
5:14 AM 43.7 °F 35.7 °F 33.4 °F 67% 30.11 in 10.0 mi South 18.4 mph 25.3 mph N/A   Clear
5:35 AM 43.3 °F 35.5 °F 33.4 °F 68% 30.11 in 10.0 mi South 17.3 mph 24.2 mph N/A   Clear
5:55 AM 43.3 °F 35.5 °F 33.4 °F 68% 30.10 in 10.0 mi South 17.3 mph 24.2 mph N/A   Clear
6:15 AM 43.5 °F 36.4 °F 33.3 °F 67% 30.10 in 10.0 mi South 15.0 mph 25.3 mph N/A   Clear
6:35 AM 43.3 °F 35.8 °F 33.1 °F 67% 30.10 in 10.0 mi South 16.1 mph 24.2 mph N/A   Clear
6:55 AM 43.5 °F 36.1 °F 32.9 °F 66% 30.10 in 10.0 mi South 16.1 mph 28.8 mph N/A   Clear
7:14 AM 43.3 °F 35.8 °F 32.9 °F 67% 30.10 in 10.0 mi South 16.1 mph 25.3 mph N/A   Clear
7:35 AM 42.8 °F 35.4 °F 32.9 °F 68% 30.10 in 10.0 mi South 15.0 mph 25.3 mph N/A   Clear
7:55 AM 42.8 °F 34.8 °F 32.9 °F 68% 30.11 in 10.0 mi South 17.3 mph 23.0 mph N/A   Clear
8:15 AM 43.3 °F 36.5 °F 33.3 °F 68% 30.12 in 10.0 mi South 13.8 mph 21.9 mph N/A   Clear
8:35 AM 44.1 °F 37.7 °F 33.3 °F 66% 30.12 in 10.0 mi South 12.7 mph 19.6 mph N/A   Clear
8:54 AM 45.7 °F 39.1 °F 33.8 °F 63% 30.12 in 10.0 mi South 15.0 mph 23.0 mph N/A   Clear
9:15 AM 47.5 °F - 33.8 °F 59% 30.12 in 10.0 mi South 13.8 mph 21.9 mph N/A   Clear
9:35 AM 49.3 °F - 33.8 °F 55% 30.12 in 10.0 mi South 16.1 mph 27.6 mph N/A   Clear
9:55 AM 50.0 °F - 33.8 °F 54% 30.12 in 10.0 mi SSW 15.0 mph 23.0 mph N/A   Clear
10:15 AM 52.0 °F - 34.0 °F 50% 30.12 in 10.0 mi SSW 17.3 mph 26.5 mph N/A   Clear
10:34 AM 51.8 °F - 34.0 °F 51% 30.12 in 10.0 mi South 13.8 mph 23.0 mph N/A   Clear
10:55 AM 53.8 °F - 34.3 °F 48% 30.12 in 10.0 mi South 17.3 mph 25.3 mph N/A   Clear
11:15 AM 54.1 °F - 34.3 °F 47% 30.12 in 10.0 mi South 17.3 mph 28.8 mph N/A   Clear
11:34 AM 54.1 °F - 34.5 °F 48% 30.11 in 10.0 mi South 16.1 mph 21.9 mph N/A   Clear
11:55 AM 54.9 °F - 34.7 °F 47% 30.10 in 10.0 mi South 18.4 mph 24.2 mph N/A   Clear
12:15 PM 55.6 °F - 34.9 °F 46% 30.09 in 10.0 mi South 12.7 mph 20.7 mph N/A   Clear
12:35 PM 56.5 °F - 35.1 °F 45% 30.08 in 10.0 mi South 15.0 mph 21.9 mph N/A   Clear
12:54 PM 55.8 °F - 35.2 °F 46% 30.07 in 10.0 mi SSE 16.1 mph 21.9 mph N/A   Clear
1:15 PM 56.8 °F - 35.6 °F 45% 30.06 in 10.0 mi South 15.0 mph 28.8 mph N/A   Clear
1:34 PM 56.7 °F - 36.1 °F 46% 30.06 in 10.0 mi South 11.5 mph 21.9 mph N/A   Clear
1:55 PM 57.9 °F - 36.5 °F 45% 30.05 in 10.0 mi SSE 15.0 mph 20.7 mph N/A   Clear
2:15 PM 57.2 °F - 36.9 °F 47% 30.05 in 10.0 mi South 11.5 mph 16.1 mph N/A   Clear
2:35 PM 56.5 °F - 36.9 °F 48% 30.05 in 10.0 mi SSE 11.5 mph - N/A   Clear
2:55 PM 56.8 °F - 36.9 °F 47% 30.04 in 10.0 mi South 11.5 mph 20.7 mph N/A   Clear
3:15 PM 56.3 °F - 36.7 °F 48% 30.05 in 10.0 mi South 12.7 mph 24.2 mph N/A   Clear
3:35 PM 55.4 °F - 36.9 °F 50% 30.05 in 10.0 mi South 10.4 mph - N/A   Clear
3:54 PM 56.8 °F - 37.6 °F 49% 30.05 in 10.0 mi SSE 9.2 mph - N/A   Clear
4:15 PM 56.5 °F - 36.7 °F 48% 30.06 in 10.0 mi South 9.2 mph 23.0 mph N/A   Clear
4:35 PM 54.9 °F - 36.0 °F 49% 30.06 in 10.0 mi South 8.1 mph 17.3 mph N/A   Clear
4:55 PM 53.2 °F - 36.1 °F 52% 30.06 in 10.0 mi SSE 8.1 mph - N/A   Clear
5:15 PM 50.5 °F - 36.5 °F 59% 30.06 in 10.0 mi SSE 9.2 mph - N/A   Clear
5:34 PM 50.4 °F - 36.5 °F 59% 30.05 in 10.0 mi SSE 10.4 mph - N/A   Clear
5:55 PM 50.2 °F - 36.7 °F 60% 30.05 in 10.0 mi SE 11.5 mph - N/A   Clear
6:15 PM 49.1 °F - 36.5 °F 62% 30.05 in 10.0 mi SE 12.7 mph - N/A   Clear
6:34 PM 49.1 °F - 36.1 °F 61% 30.04 in 10.0 mi SE 12.7 mph - N/A   Clear
6:55 PM 49.1 °F - 36.0 °F 61% 30.05 in 10.0 mi SSE 11.5 mph - N/A   Clear
7:15 PM 48.0 °F - 35.6 °F 62% 30.05 in 10.0 mi SSE 9.2 mph - N/A   Clear
7:35 PM 46.4 °F 42.4 °F 35.6 °F 66% 30.04 in 10.0 mi SSE 8.1 mph - N/A   Clear
7:54 PM 43.5 °F 40.9 °F 34.9 °F 72% 30.05 in 10.0 mi SE 4.6 mph - N/A   Clear
8:15 PM 42.4 °F 39.6 °F 34.9 °F 75% 30.05 in 10.0 mi SE 4.6 mph - N/A   Clear
8:55 PM 46.4 °F 42.4 °F 36.0 °F 67% 30.05 in 10.0 mi SSE 8.1 mph - N/A   Clear
9:15 PM 47.3 °F - 36.0 °F 65% 30.05 in 10.0 mi SSE 6.9 mph - N/A   Clear
9:34 PM 46.8 °F - 35.8 °F 66% 30.04 in 10.0 mi SE 10.4 mph - N/A   Clear
9:55 PM 46.9 °F - 35.6 °F 65% 30.04 in 10.0 mi SE 8.1 mph - N/A   Clear
10:15 PM 48.9 °F - 35.2 °F 59% 30.03 in 10.0 mi South 10.4 mph 18.4 mph N/A   Clear
10:35 PM 48.4 °F - 35.1 °F 60% 30.03 in 10.0 mi South 12.7 mph 18.4 mph N/A   Clear
10:55 PM 47.8 °F - 34.7 °F 60% 30.02 in 10.0 mi South 11.5 mph 19.6 mph N/A   Clear
11:15 PM 47.7 °F - 34.9 °F 61% 30.02 in 10.0 mi South 12.7 mph 21.9 mph N/A   Clear
11:35 PM 47.3 °F - 34.9 °F 62% 30.02 in 10.0 mi South 13.8 mph - N/A   Clear
11:55 PM 46.9 °F - 34.9 °F 63% 30.02 in 10.0 mi SSE 9.2 mph - N/A   Clear